(336100) = 2008 HL44

Discovered at Mount Lemmon on 2008-04-27 by Mt. Lemmon Survey.

Orbit

Orbit type: Main Belt

Note: WebGL enabled browser required.

epoch2023-09-13.0
epoch JD2460200.5
perihelion date2023-04-05.21170
perihelion JD2460039.71170
argument of perihelion (°)170.51369
ascending node (°)140.09074
inclination (°)2.77948
eccentricity0.2144647
perihelion distance (AU)1.8385198
Tisserand w.r.t. Jupiter3.5
ΔV w.r.t. Earth (km/sec)8.5
semimajor axis (AU)2.3404674
mean anomaly (°)44.25928
mean daily motion (°/day)0.27526430
aphelion distance (AU)2.842
period (years)3.58
P-vector [x]0.65095731
P-vector [y]-0.69961426
P-vector [z]-0.29460903
Q-vector [x]0.75847655
Q-vector [y]0.61533617
Q-vector [z]0.21465024
absolute magnitude17.87
phase slope0.15
uncertainty0
referenceMPEC 2023-X167
observations used157
oppositions10
arc length (days)7199
first opposition used2004
last opposition used2023
residual rms (arc-secs)0.87
perturbers coarse indicatorM-v
perturbers precise indicator003Ek
first observation date used2004-03-23.0
last observation date used2023-12-08.0
computer nameMPCLINUX
JD of orbit computation2456154.374181
perihelion JD uncertainty (days)1.0829E-04
argument of perihelion uncertainty (°)1.8291E-04
ascending node uncertainty (°)1.7840E-04
inclination uncertainty (°)8.4679E-06
eccentricity uncertainty 7.0561E-08
perihelion distance uncertainty (AU)1.6902E-07
Minimum Orbit Intersection Distances (in AU)
for orbit epoch: 2460200.5, reference: E2023-X62
Mercury1.40806
Venus1.11218
Earth0.82361
Mars0.44557
Jupiter2.42001
Saturn6.28159
Uranus15.6672
Neptune27.3642

Observations

159 total observations over interval: 2004 03 23.19655 – 2023 12 08.260237
These data are available for download (format description).

Date (UT) J2000 RA J2000 Dec Magn Location Ref
2004 03 23.19655 11 38 21.82 +05 13 31.4 21.9 V 691 – Steward Observatory, Kitt Peak-Spacewatch MPS 251435
2004 03 23.23072 11 38 19.79 +05 13 45.4 21.6 V 691 – Steward Observatory, Kitt Peak-Spacewatch MPS 251435
2004 03 23.26150 11 38 18.03 +05 13 57.9 21.8 V 691 – Steward Observatory, Kitt Peak-Spacewatch MPS 251435
2005 09 23.30523 00 51 55.40 +01 14 57.5 19.7 V 703 – Catalina Sky Survey MPS 251435
2005 09 23.31647 00 51 54.72 +01 14 53.2 20.6 V 703 – Catalina Sky Survey MPS 251435
2005 09 23.32771 00 51 54.07 +01 14 47.0 20.2 V 703 – Catalina Sky Survey MPS 251435
2005 09 23.33899 00 51 53.49 +01 14 42.8 19.3 V 703 – Catalina Sky Survey MPS 251435
2005 10 07.28187 00 39 33.48 -00 22 15.9 19.6 V 703 – Catalina Sky Survey MPS 251435
2005 10 07.28889 00 39 33.04 -00 22 18.4 19.6 V 703 – Catalina Sky Survey MPS 251435
2005 10 07.29590 00 39 32.58 -00 22 22.2 20.9 V 703 – Catalina Sky Survey MPS 251435
2005 10 07.30295 00 39 32.29 -00 22 25.2 20.1 V 703 – Catalina Sky Survey MPS 251435
2005 10 27.10933 00 25 37.93 -01 52 54.6 20.6 V 691 – Steward Observatory, Kitt Peak-Spacewatch MPS 251435
2005 10 27.12480 00 25 37.50 -01 52 56.8 20.8 V 691 – Steward Observatory, Kitt Peak-Spacewatch MPS 251435
2005 10 27.14027 00 25 37.03 -01 52 59.2 20.5 V 691 – Steward Observatory, Kitt Peak-Spacewatch MPS 251435
2008 04 07.41206 15 30 39.67 -14 23 23.1 21.0 V 691 – Steward Observatory, Kitt Peak-Spacewatch MPS 251038
2008 04 07.42969 15 30 39.27 -14 23 20.1 20.6 V 691 – Steward Observatory, Kitt Peak-Spacewatch MPS 251038
2008 04 07.44732 15 30 38.91 -14 23 16.5 21.0 V 691 – Steward Observatory, Kitt Peak-Spacewatch MPS 251038
2008 04 15.42769 15 27 09.68 -13 55 29.8 21.1 V 691 – Steward Observatory, Kitt Peak-Spacewatch MPS 251038
2008 04 15.44533 15 27 09.05 -13 55 25.9 20.8 V 691 – Steward Observatory, Kitt Peak-Spacewatch MPS 251038
2008 04 15.46297 15 27 08.40 -13 55 21.6 21.1 V 691 – Steward Observatory, Kitt Peak-Spacewatch MPS 251038
2008 04 27.36977 15 18 36.50 -13 04 47.3 19.6 V G96 – Mt. Lemmon Survey MPS 249076
2008 04 27.37505 15 18 36.25 -13 04 46.4 19.5 V G96 – Mt. Lemmon Survey MPS 249076
2008 04 27.38032 15 18 36.03 -13 04 44.4 21.1 V G96 – Mt. Lemmon Survey MPS 249076
2008 04 27.38561 15 18 35.71 -13 04 43.2 19.8 V G96 – Mt. Lemmon Survey MPS 249076
2008 05 03.35613 15 13 09.58 -12 37 00.3 20.1 V G96 – Mt. Lemmon Survey MPS 249076
2008 05 03.36279 15 13 09.15 -12 36 58.4 20.3 V G96 – Mt. Lemmon Survey MPS 249076
2008 05 03.36942 15 13 08.76 -12 36 56.4 20.1 V G96 – Mt. Lemmon Survey MPS 249076
2008 05 03.37612 15 13 08.40 -12 36 54.0 19.5 V G96 – Mt. Lemmon Survey MPS 249076
2008 05 11.20754 15 05 23.27 -12 00 47.8   691 – Steward Observatory, Kitt Peak-Spacewatch MPS 251038
2008 05 11.22524 15 05 22.16 -12 00 43.3   691 – Steward Observatory, Kitt Peak-Spacewatch MPS 251038
2008 05 11.24639 15 05 20.81 -12 00 37.6   691 – Steward Observatory, Kitt Peak-Spacewatch MPS 251038
2008 06 03.23998 14 44 44.52 -10 44 08.7 19.9 V G96 – Mt. Lemmon Survey MPS 251038
2008 06 03.24664 14 44 44.34 -10 44 08.1 19.6 V G96 – Mt. Lemmon Survey MPS 251038
2008 06 03.25331 14 44 43.98 -10 44 08.0 20.4 V G96 – Mt. Lemmon Survey MPS 251038
2008 06 03.26002 14 44 43.65 -10 44 07.7 20.2 V G96 – Mt. Lemmon Survey MPS 251038
2009 11 23.30179 04 59 39.12 +18 25 50.0 21.4 V 691 – Steward Observatory, Kitt Peak-Spacewatch MPS 305012
2009 11 23.31949 04 59 37.94 +18 25 48.1 21.8 V 691 – Steward Observatory, Kitt Peak-Spacewatch MPS 305012
2009 11 23.33721 04 59 36.72 +18 25 46.9 20.9 V 691 – Steward Observatory, Kitt Peak-Spacewatch MPS 305012
2009 12 11.24213 04 39 34.74 +17 59 06.5 21.0 V G96 – Mt. Lemmon Survey MPS 306657
2009 12 11.24736 04 39 34.41 +17 59 06.4 20.8 V G96 – Mt. Lemmon Survey MPS 306657
2009 12 11.25762 04 39 33.73 +17 59 05.5 21.2 V G96 – Mt. Lemmon Survey MPS 306657
2012 08 13.42077 22 22 15.578 -10 53 33.99 19.4 w F51 – Pan-STARRS 1, Haleakala MPS 429375
2012 08 13.43531 22 22 14.922 -10 53 40.06 19.3 w F51 – Pan-STARRS 1, Haleakala MPS 429375
2012 08 13.44981 22 22 14.270 -10 53 46.07 19.3 w F51 – Pan-STARRS 1, Haleakala MPS 429375
2012 08 13.46455 22 22 13.601 -10 53 52.16 19.3 w F51 – Pan-STARRS 1, Haleakala MPS 429375
2012 08 14.56527 22 21 27.97 -11 01 20.3 19.1 V E12 – Siding Spring Survey MPS 429375
2012 08 14.57942 22 21 27.28 -11 01 26.6 19.5 V E12 – Siding Spring Survey MPS 429375
2012 08 14.59379 22 21 26.53 -11 01 32.5 19.9 V E12 – Siding Spring Survey MPS 429375
2012 08 14.60801 22 21 25.95 -11 01 38.8 19.8 V E12 – Siding Spring Survey MPS 429375
2012 09 04.427681 22 06 06.230 -13 23 36.47 19.1 i F51 – Pan-STARRS 1, Haleakala MPS 431309
2012 09 04.439271 22 06 05.730 -13 23 40.42 19.1 i F51 – Pan-STARRS 1, Haleakala MPS 431309
2012 11 02.266073 22 17 40.136 -13 18 27.46 21.1 r F51 – Pan-STARRS 1, Haleakala MPS 441562
2012 11 02.276705 22 17 40.750 -13 18 23.70 21.1 r F51 – Pan-STARRS 1, Haleakala MPS 441562
2015 03 21.48208 13 54 43.049 -07 43 19.62 21.5 w F51 – Pan-STARRS 1, Haleakala MPS 595009
2015 03 21.49336 13 54 42.646 -07 43 16.55 21.3 w F51 – Pan-STARRS 1, Haleakala MPS 595009
2015 03 21.50464 13 54 42.251 -07 43 13.10 21.5 w F51 – Pan-STARRS 1, Haleakala MPS 595009
2015 03 21.51594 13 54 41.835 -07 43 09.68 21.3 w F51 – Pan-STARRS 1, Haleakala MPS 595009
2015 03 22.45735 13 54 09.915 -07 38 28.47 21.3 w F51 – Pan-STARRS 1, Haleakala MPS 595009
2015 03 22.46903 13 54 09.465 -07 38 25.28 21.5 w F51 – Pan-STARRS 1, Haleakala MPS 595009
2015 03 22.48066 13 54 09.044 -07 38 21.70 21.2 w F51 – Pan-STARRS 1, Haleakala MPS 595009
2015 03 22.49228 13 54 08.588 -07 38 18.16 21.4 w F51 – Pan-STARRS 1, Haleakala MPS 595009
2015 04 13.30584 13 36 33.04 -05 26 30.2 21.0 V G96 – Mt. Lemmon Survey MPS 600489
2015 04 13.31041 13 36 32.72 -05 26 28.1 21.1 V G96 – Mt. Lemmon Survey MPS 600489
2015 04 13.31498 13 36 32.45 -05 26 25.9 20.7 V G96 – Mt. Lemmon Survey MPS 600489
2015 04 13.31955 13 36 32.18 -05 26 25.2 20.9 V G96 – Mt. Lemmon Survey MPS 600489
2015 04 20.69068 13 29 21.61 -04 38 48.3 20.7 R D29 – Purple Mountain Observatory, XuYi Station MPS 602975
2015 04 20.70479 13 29 20.76 -04 38 43.2 20.7 R D29 – Purple Mountain Observatory, XuYi Station MPS 602975
2015 04 21.40552 13 28 40.065 -04 34 18.44 20.6 w F51 – Pan-STARRS 1, Haleakala MPS 602975
2015 04 21.41907 13 28 39.235 -04 34 13.41 20.8 w F51 – Pan-STARRS 1, Haleakala MPS 602975
2015 04 21.43263 13 28 38.409 -04 34 08.33 20.7 w F51 – Pan-STARRS 1, Haleakala MPS 602975
2015 04 21.44621 13 28 37.584 -04 34 03.21 20.7 w F51 – Pan-STARRS 1, Haleakala MPS 602975
2015 05 07.37149 13 14 32.790 -03 09 12.22 20.7 i F51 – Pan-STARRS 1, Haleakala MPS 606274
2015 05 07.38307 13 14 32.209 -03 09 09.45 20.7 i F51 – Pan-STARRS 1, Haleakala MPS 606274
2015 05 07.39464 13 14 31.677 -03 09 06.16 20.6 i F51 – Pan-STARRS 1, Haleakala MPS 606274
2015 05 24.30857 13 05 22.706 -02 26 17.12 21.1 i F51 – Pan-STARRS 1, Haleakala MPS 609718
2015 05 24.31991 13 05 22.467 -02 26 16.24 21.1 i F51 – Pan-STARRS 1, Haleakala MPS 609718
2015 05 24.34264 13 05 22.008 -02 26 15.56 20.9 i F51 – Pan-STARRS 1, Haleakala MPS 609718
2016 10 07.44770 04 00 19.818 +16 13 17.05 21.3 w F51 – Pan-STARRS 1, Haleakala MPS 735982
2016 10 07.46072 04 00 19.557 +16 13 15.34 21.7 w F51 – Pan-STARRS 1, Haleakala MPS 735982
2016 10 07.47374 04 00 19.294 +16 13 13.56 21.2 w F51 – Pan-STARRS 1, Haleakala MPS 735982
2016 10 07.48681 04 00 19.037 +16 13 11.49 21.4 w F51 – Pan-STARRS 1, Haleakala MPS 735982
2016 10 26.44133 03 48 51.93 +15 12 58.3 20.4 V G96 – Mt. Lemmon Survey MPS 739431
2016 10 26.44936 03 48 51.48 +15 12 56.4 20.3 V G96 – Mt. Lemmon Survey MPS 739431
2016 10 26.45885 03 48 50.95 +15 12 53.9 21.2 V G96 – Mt. Lemmon Survey MPS 739431
2016 10 26.46318 03 48 50.69 +15 12 52.4 20.7 V G96 – Mt. Lemmon Survey MPS 739431
2016 11 06.21999 03 38 16.24 +14 31 05.5 20.4 V G96 – Mt. Lemmon Survey MPS 744827
2016 11 06.22613 03 38 15.94 +14 31 03.8 20.5 V G96 – Mt. Lemmon Survey MPS 744827
2016 11 06.23191 03 38 15.49 +14 31 03.5 20.0 V G96 – Mt. Lemmon Survey MPS 744827
2016 11 06.23723 03 38 15.18 +14 31 01.2 19.7 V G96 – Mt. Lemmon Survey MPS 744827
